Regional Weather Roundup
Issued by NWS

Home | Current Version | Previous Version | Text Only | Print | Product List | Glossary On
Versions: 1 2 3 4 5 6 7 8 9 10 11 12 13 14 15 16 17 18 19 20 21 22 23 24 25 26 27 28
000
ASUS44 KBMX 221510
RWRAL

ALABAMA REGIONAL WEATHER ROUNDUP
NATIONAL WEATHER SERVICE BIRMINGHAM AL
1000 AM CDT SUN APR 22 2018

NOTE: "FAIR" INDICATES FEW OR NO CLOUDS BELOW 12,000 FEET
WITH NO SIGNIFICANT WEATHER AND/OR OBSTRUCTIONS TO VISIBILITY.

THE REMARK "TC" DENOTES TEMPERATURE IN DEGREES CELSIUS.

ALZ001>011-014-016>018-020-221600-
NORTH ALABAMA

CITY           SKY/WX    TMP DP  RH WIND       PRES   REMARKS
MUSCLE SHOALS  CLOUDY    60  57  89 E10       30.07F
HUNTSVILLE     LGT RAIN  61  59  93 SE16      30.09F
DECATUR        LGT RAIN  59  58  96 E8        30.09F
HALEYVILLE     CLOUDY    59  59 100 SE9       30.08F
GADSDEN        CLOUDY    59  59 100 E7        30.14S
$$

ALZ012-013-022-023-030>036-040>044-221600-
WEST CENTRAL ALABAMA

CITY           SKY/WX    TMP DP  RH WIND       PRES   REMARKS
TUSCALOOSA     CLOUDY    66  63  90 SE10G18   30.04F
DEMOPOLIS      CLOUDY    67  61  79 E9        30.00F
$$

ALZ015-024>026-033>036-041>044-221600-
CENTRAL ALABAMA

CITY           SKY/WX    TMP DP  RH WIND       PRES   REMARKS
BIRMINGHAM     CLOUDY    64  59  83 SE10G18   30.11S
MONTGOMERY     CLOUDY    67  61  81 E13       30.09S
SHELBY CO ARPT CLOUDY    64  60  87 SE9       30.08F
MAXWELL AFB    CLOUDY    65  59  79 E12       30.08S
GREENVILLE     CLOUDY    67  60  78 SE10      30.05F
SELMA          PTSUNNY   68  61  77 E13       30.04F
PRATTVILLE     CLOUDY    65  61  85 E10       30.08F
BESSEMER       CLOUDY    63  59  87 SE13      30.09F
TALLADEGA      CLOUDY    64  58  83 SE5G22    30.13S
PELL CITY        N/A     64  61  88 SE8       30.12S
MARION         CLOUDY    66  62  89 SE9       30.02F
SYLACAUGA      CLOUDY    64  60  87 SE8       30.12R
$$

ALZ019-021-028-029-037-038-045>048-221600-
EAST CENTRAL ALABAMA

CITY           SKY/WX    TMP DP  RH WIND       PRES   REMARKS
ANNISTON       CLOUDY    63  57  81 E7G20     30.14S
ALEXANDER CITY CLOUDY    63  61  95 E13G22    30.12S
AUBURN         CLOUDY    61  58  90 E14G22    30.13F
$$

ALZ051>064-221600-
SOUTHWEST ALABAMA

CITY           SKY/WX    TMP DP  RH WIND       PRES   REMARKS
MOBILE         LGT RAIN  70  68  93 SE14      29.98F FOG
BROOKLEY FIELD LGT RAIN  72  70  93 SE12      29.98F
EVERGREEN      LGT RAIN  70  63  78 SE9       30.04F
$$

ALZ049-050-065>069-221600-
SOUTHEAST ALABAMA

CITY           SKY/WX    TMP DP  RH WIND       PRES   REMARKS
DOTHAN         CLOUDY    70  61  73 SE18      30.12S
OZARK          CLOUDY    70  63  78 SE16G23   30.08S
TROY           LGT RAIN  66  62  87 SE9       30.10R
EUFAULA        CLOUDY    68  61  78 SE13G22   30.11F
$$




USA.gov is the U.S. government's official web portal to all federal, state and local government web resources and services.